Flag for U.S.A. Weather past 2 weeks in Marengo, Indiana, U.S.A.

Now
58 °F

Sunny.


Feels Like: 58 °F
Forecast: 41 / 60 °F
Wind: 5 mph from Northeast

Location: Bowling Green-Warren County Regional Airport

Current Time: Oct 22, 2014 at 7:16:14 PM

Latest Report: Oct 22, 2014 at 6:53 PM


Visibility: 10 mi

Pressure: 30.22 "Hg

Humidity: 54%

Dew point: 41 °F

Location of MarengoLocation

Historic Weather in Marengo — Graph

°F

Marengo temperature yesterday

Maximum temperature yesterday: 69 °F (at 2:53 PM)
Minimum temperature yesterday: 46 °F (at 4:53 AM)
Average temperature yesterday: 56 °F

Past Weeks' High & Low Weather Summary

 TemperatureHumidityPressure
High80 °F (Oct 8, 3:53 PM)94% (Oct 10, 1:53 AM)30.29 "Hg (Oct 10, 1:53 AM)
Low42 °F (Oct 22, 5:53 AM)27% (Oct 8, 3:53 PM)29.58 "Hg (Oct 14, 5:53 AM)
Average60 °F76%29.98 "Hg
* Reported Oct 7 5:53 PM — Oct 22 5:53 PM, Marengo, Weather by CustomWeather, © 2014

Note: Actual official high and low records may vary slightly from our data, if they occured in-between our weather recording intervals... More about our weather records

Advertising

Marengo weather history for previous 24 hours

 ConditionsComfort  
Time TempWeatherWind HumidityBarometerVisibility
5:53 PM
Oct 22
62 °FSunny.7 mph46%30.21 "Hg10 mi
4:53 PM63 °FSunny.10 mph43%30.21 "Hg10 mi
3:53 PM62 °FSunny.8 mph44%30.23 "Hg10 mi
2:53 PM61 °FSunny.6 mph46%30.24 "Hg10 mi
1:53 PM58 °FSunny.3 mph50%30.26 "Hg10 mi
12:53 PM57 °FSunny.8 mph51%30.29 "Hg10 mi
11:53 AM55 °FSunny.12 mph55%30.29 "Hg10 mi
10:53 AM52 °FPassing clouds.9 mph64%30.29 "Hg10 mi
9:53 AM49 °FSunny.8 mph71%30.29 "Hg10 mi
8:53 AM44 °FClear.5 mph85%30.27 "Hg10 mi
7:53 AM42 °FClear.5 mph85%30.25 "Hg10 mi
6:53 AM43 °FClear.5 mph86%30.23 "Hg10 mi
5:53 AM42 °FClear.3 mph89%30.21 "Hg10 mi
4:53 AM45 °FClear.5 mph82%30.19 "Hg10 mi
3:53 AM46 °FClear.3 mph83%30.17 "Hg10 mi
2:53 AM43 °FClear.No wind89%30.16 "Hg10 mi
1:53 AM43 °FClear.No wind89%30.16 "Hg10 mi
12:53 AM45 °FClear.No wind86%30.15 "Hg10 mi
11:53 PM
Oct 21
47 °FClear.No wind86%30.16 "Hg10 mi
10:53 PM51 °FPassing clouds.No wind71%30.15 "Hg10 mi
9:53 PM54 °FPassing clouds.5 mph64%30.13 "Hg10 mi
8:53 PM56 °FPassing clouds.8 mph60%30.11 "Hg10 mi
7:53 PM58 °FSunny.3 mph56%30.10 "Hg10 mi
Weather by CustomWeather, © 2014

See weather overviewHow to use our weather pages